Regional Weather Roundup
Issued by NWS

Home | Current Version | Previous Version | Graphics & Text | Print | Product List | Glossary On
Versions: 1 2 3 4 5 6 7 8 9 10 11 12 13 14 15 16 17 18 19 20 21 22 23 24 25 26 27 28 29 30 31 32 33 34 35 36 37 38 39 40 41 42 43 44 45 46 47 48 49 50
000
ASUS43 KOAX 180302
RWRNE

WEATHER ROUNDUP FOR NEBRASKA
NATIONAL WEATHER SERVICE OMAHA NE
1000 PM CDT THU AUG 17 2017

NOTES: SATELLITE DATA IS BEING USED TO AUGMENT CLOUD COVER ABOVE
       12000 FEET.
       "FAIR" INDICATES FEW OR NO CLOUDS BELOW 12,000 FEET WITH NO
       SIGNIFICANT WEATHER AND/OR OBSTRUCTIONS TO VISIBILITY.


NEZ001>004-019>022-054>056-180400-
NEBRASKA PANHANDLE

CITY           SKY/WX    TMP DP  RH WIND       PRES   REMARKS
SCOTTSBLUFF    CLEAR     71  48  43 N18       30.03R
ALLIANCE       LGT RAIN  67  49  52 MISG      30.03R
CHADRON        CLEAR     61  54  77 SW6       30.01R
GORDON         FAIR      64  51  62 N9        29.99R
KIMBALL        CLEAR     69  45  41 CALM      30.08S
SIDNEY         PTCLDY    68  49  50 W13       30.05R
$$

NEZ057>060-069>072-079>082-180400-
SOUTHWEST NEBRASKA

CITY           SKY/WX    TMP DP  RH WIND       PRES   REMARKS
NORTH PLATTE   CLOUDY    73  60  63 SE3       29.93R
IMPERIAL       CLOUDY    63  57  81 S9        29.98S
LEXINGTON      CLOUDY    73  60  64 S8        29.93S
MCCOOK         CLOUDY    76  50  40 S15       29.90S
OGALLALA       CLEAR     69  58  65 S9        29.96R
$$

NEZ005>010-023>029-035>040-094-180400-
NORTH CENTRAL NEBRASKA

CITY           SKY/WX    TMP DP  RH WIND       PRES   REMARKS
VALENTINE      LGT RAIN  68  55  63 N17       29.91F
AINSWORTH      CLOUDY    68  57  69 N29G37    29.95R
BROKEN BOW     MOCLDY    75  60  59 S7        29.92S
O`NEILL        CLEAR     72  62  71 S7        29.89R
ORD            CLEAR     70  61  73 S5        29.91R
THEDFORD       CLEAR     76  60  58 S9        29.91S
$$

NEZ041-046>049-061>064-073>077-083>087-180400-
SOUTH CENTRAL NEBRASKA

CITY           SKY/WX    TMP DP  RH WIND       PRES   REMARKS
GRAND ISLAND   CLEAR     69  65  86 S8        29.94R
AURORA         CLEAR     71  63  75 S5        29.95R
HASTINGS       CLEAR     74  60  61 S6        29.96R
HEBRON         CLEAR     71  64  78 S6        29.95R
HOLDREGE       MOCLDY    70  57  64 SE8       29.95S
KEARNEY        PTCLDY    70  63  78 S6        29.95R
YORK           CLEAR     68  64  88 S7        29.94R
$$

NEZ011>018-030>034-042>045-180400-
NORTHEAST NEBRASKA

CITY           SKY/WX    TMP DP  RH WIND       PRES   REMARKS
NORFOLK        CLEAR     67  63  87 SE5       29.91R
ALBION         CLEAR     70  65  83 SE3       29.92R
BLAIR          RAIN      70  64  83 CALM      29.93R
COLUMBUS       CLEAR     72  66  81 S7        29.93R
FREMONT        CLEAR     70  65  83 CALM      29.92R
TEKAMAH        CLEAR     66  63  90 E5        29.90S
WAYNE          CLEAR     65  63  91 CALM      29.91S
$$

NEZ050>053-065>068-078-088>093-180400-
SOUTHEAST NEBRASKA

CITY           SKY/WX    TMP DP  RH WIND       PRES   REMARKS
LINCOLN        CLEAR     70  64  81 S5        29.94R
OMAHA EPPLEY   CLEAR     71  62  73 E3        29.91R
BEATRICE       CLEAR     72  64  74 S3        29.95R
FALLS CITY     CLEAR     67  62  84 CALM      29.93R
NEBRASKA CITY  CLEAR     71  65  83 CALM      29.94R
PLATTSMOUTH    CLEAR     72  61  69 S3        29.93R
$$

NEZ044-045-051>053-067-180400-
OMAHA AREA

CITY           SKY/WX    TMP DP  RH WIND       PRES   REMARKS
OMAHA EPPLEY   CLEAR     71  62  73 E3        29.91R
BLAIR          RAIN      70  64  83 CALM      29.93R
FREMONT        CLEAR     70  65  83 CALM      29.92R
MILLARD        CLEAR     70  65  84 CALM      29.92R
OFFUTT AFB     CLEAR     64  60  85 CALM      29.91R
PLATTSMOUTH    CLEAR     72  61  69 S3        29.93R
WAHOO          FAIR      69  66  90 SE3       29.92R
$$



USA.gov is the U.S. government's official web portal to all federal, state and local government web resources and services.